Пасвалис

Литва     56˚03′55″N   24˚23′59″E
темп.,
°C
ветер,
м/с
пор.,
м/с
влажн.,
%
обл.,
%
осадки,
мм/ч
давл.,
гПа
погр.,
м
5 декабря, сб
сб523:00+3˚ююв7158698 0.0 1014759
02:00+4˚ююв7168899 0.0 1015684
05:00+4˚ююв7168891 0.0 1015667
08:00+4˚ююв7168895 0.0 1016668
11:00+5˚ююв71686100 0.0 1017672
14:00+6˚ююв71586100 0.0 1018663
17:00+5˚ююв71587100 0.0 1018691
20:00+6˚ююв71586100 0.0 1020760
6 декабря, вс
вс623:00+5˚ююв71585100 0.0 1020736
02:00+5˚ююв7148598 0.0 1022675
05:00+5˚ююв71484100 0.0 1022765
08:00+5˚ююв71483100 0.0 1023776
11:00+4˚ююв8148097 0.0 1024783
14:00+3˚ююв7137895 0.0 1025763
17:00+2˚ююв7157616 0.0 1025649
20:00+1˚ююв615738 0.0 1026631
7 декабря, пн
пн723:00ююв717570 0.0 1026572
02:00юв715520 0.0 1027542
05:00−1˚юв716530 0.0 1026584
08:00−1˚юв715560 0.0 1026651
11:00юв815520 0.0 1026715
14:00юв814490 0.0 1026752
17:00−1˚юв816500 0.0 1025677
20:00−2˚юв816490 0.0 1026624
8 декабря, вт
вт823:00−2˚юв715510 0.0 1026641
02:00−3˚юв715630 0.0 1025670
05:00−3˚юв714690 0.0 1025645
08:00−3˚юв613670 0.0 1025552
11:00−2˚юв713570 0.0 1025669
14:00−1˚вюв713560 0.0 1024733
17:00−2˚юв714610 0.0 1023671
20:00−3˚юв614640 0.0 1024674
9 декабря, ср
ср923:00−3˚юв6126527 0.0 1024672
02:00−4˚юв5106855 0.0 1024616
05:00−4˚юв5107347 0.0 1024523
08:00−4˚юв4107524 0.0 1024480
11:00−3˚юв597237 0.0 1024501
14:00−2˚юв587864 0.0 1024462
17:00−2˚вюв4889100 0.2 1024432
20:00−2˚вюв488999 0.3 1023376